TimeCST,TemperatureF,Dew PointF,Humidity,Sea Level PressureIn,VisibilityMPH,Wind Direction,Wind SpeedMPH,Gust SpeedMPH,PrecipitationIn,Events,Conditions,WindDirDegrees,DateUTC
12:35 AM,37.4,32.0,81,30.10,10.0,ENE,8.1,-,N/A,,Clear,60,2013-02-12 06:35:00
12:55 AM,39.2,33.8,81,30.09,10.0,ENE,6.9,-,N/A,,Clear,60,2013-02-12 06:55:00
1:15 AM,37.4,33.8,87,30.09,10.0,ENE,6.9,-,N/A,,Clear,70,2013-02-12 07:15:00
1:35 AM,37.4,33.8,87,30.07,10.0,ENE,6.9,-,N/A,,Clear,60,2013-02-12 07:35:00
1:55 AM,37.4,32.0,81,30.05,10.0,NE,6.9,-,N/A,,Clear,50,2013-02-12 07:55:00
2:15 AM,37.4,33.8,87,30.02,10.0,ENE,9.2,-,N/A,,Clear,60,2013-02-12 08:15:00
2:35 AM,37.4,32.0,81,29.99,10.0,ENE,9.2,-,N/A,,Clear,60,2013-02-12 08:35:00
2:55 AM,37.4,32.0,81,30.03,10.0,East,4.6,-,N/A,,Clear,90,2013-02-12 08:55:00
3:15 AM,37.4,32.0,81,30.02,10.0,ENE,6.9,-,N/A,,Clear,60,2013-02-12 09:15:00
3:35 AM,37.4,33.8,87,30.03,10.0,East,4.6,-,N/A,,Clear,80,2013-02-12 09:35:00
3:55 AM,39.2,33.8,81,30.08,10.0,Calm,Calm,-,N/A,,Scattered Clouds,0,2013-02-12 09:55:00
4:15 AM,39.2,33.8,81,30.03,10.0,East,6.9,-,N/A,,Clear,80,2013-02-12 10:15:00
4:35 AM,39.2,33.8,81,30.03,10.0,ENE,4.6,-,N/A,,Clear,70,2013-02-12 10:35:00
4:55 AM,39.2,33.8,81,30.01,10.0,NE,4.6,-,N/A,,Clear,50,2013-02-12 10:55:00
5:15 AM,39.2,33.8,81,30.01,10.0,NE,5.8,-,N/A,,Clear,50,2013-02-12 11:15:00
5:35 AM,41.0,33.8,76,30.02,10.0,ENE,6.9,-,N/A,,Mostly Cloudy,60,2013-02-12 11:35:00
5:55 AM,41.0,33.8,76,30.02,10.0,NNE,8.1,-,N/A,,Mostly Cloudy,20,2013-02-12 11:55:00
6:15 AM,41.0,35.6,81,29.99,10.0,NE,10.4,-,N/A,,Overcast,40,2013-02-12 12:15:00
6:35 AM,41.0,35.6,81,29.98,10.0,East,10.4,-,N/A,,Overcast,80,2013-02-12 12:35:00
6:55 AM,41.0,35.6,81,29.97,10.0,ENE,11.5,-,N/A,,Mostly Cloudy,70,2013-02-12 12:55:00
7:15 AM,41.0,37.4,87,29.96,10.0,ENE,9.2,-,N/A,,Overcast,60,2013-02-12 13:15:00
7:35 AM,41.0,37.4,87,29.97,10.0,ENE,9.2,-,0.01,,Overcast,60,2013-02-12 13:35:00
7:55 AM,41.0,37.4,87,29.97,5.0,ENE,9.2,-,0.05,,Overcast,60,2013-02-12 13:55:00
8:15 AM,41.0,37.4,87,29.97,7.0,ENE,8.1,-,0.04,,Overcast,60,2013-02-12 14:15:00
8:35 AM,41.0,37.4,87,29.95,10.0,NE,10.4,-,0.05,,Mostly Cloudy,50,2013-02-12 14:35:00
8:55 AM,41.0,37.4,87,29.99,7.0,East,11.5,-,0.08,,Mostly Cloudy,90,2013-02-12 14:55:00
9:15 AM,42.8,37.4,81,30.01,10.0,ENE,8.1,-,0.04,,Overcast,70,2013-02-12 15:15:00
9:35 AM,42.8,39.2,87,29.99,10.0,ENE,11.5,-,0.05,,Mostly Cloudy,70,2013-02-12 15:35:00
9:55 AM,42.8,39.2,87,29.97,7.0,ENE,13.8,19.6,0.07,,Overcast,70,2013-02-12 15:55:00
10:15 AM,42.8,39.2,87,29.97,10.0,ENE,15.0,18.4,0.01,,Mostly Cloudy,60,2013-02-12 16:15:00
10:35 AM,42.8,39.2,87,29.96,10.0,ENE,13.8,19.6,0.01,,Mostly Cloudy,70,2013-02-12 16:35:00
10:55 AM,42.8,39.2,87,29.94,7.0,East,17.3,23.0,0.01,,Overcast,80,2013-02-12 16:55:00
11:15 AM,42.8,39.2,87,29.92,10.0,ENE,17.3,24.2,N/A,,Overcast,70,2013-02-12 17:15:00
11:35 AM,42.8,39.2,87,29.94,7.0,ENE,13.8,23.0,0.01,,Overcast,70,2013-02-12 17:35:00
11:55 AM,42.8,39.2,87,29.92,7.0,East,17.3,21.9,0.01,,Overcast,80,2013-02-12 17:55:00
12:15 PM,42.8,39.2,87,29.94,7.0,ENE,13.8,-,0.01,,Overcast,60,2013-02-12 18:15:00
12:35 PM,42.8,39.2,87,29.95,7.0,ENE,8.1,-,0.03,,Overcast,70,2013-02-12 18:35:00
12:55 PM,42.8,39.2,87,29.94,3.0,East,9.2,-,0.05,,Overcast,80,2013-02-12 18:55:00
1:15 PM,42.8,41.0,93,29.94,3.0,ENE,5.8,-,0.01,,Overcast,60,2013-02-12 19:15:00
1:35 PM,42.8,41.0,93,29.92,3.0,East,8.1,-,0.02,,Overcast,80,2013-02-12 19:35:00
1:55 PM,42.8,41.0,93,29.92,4.0,ENE,4.6,-,0.03,,Overcast,70,2013-02-12 19:55:00
2:15 PM,42.8,41.0,93,29.92,4.0,NE,6.9,-,N/A,,Overcast,50,2013-02-12 20:15:00
2:35 PM,42.8,41.0,93,29.90,4.0,NE,5.8,-,0.01,,Overcast,50,2013-02-12 20:35:00
2:55 PM,42.8,41.0,93,29.89,3.0,East,8.1,-,0.01,,Overcast,80,2013-02-12 20:55:00
3:15 PM,42.8,41.0,93,29.89,4.0,East,8.1,-,N/A,,Overcast,80,2013-02-12 21:15:00
3:35 PM,42.8,41.0,93,29.89,5.0,ENE,8.1,-,N/A,,Overcast,60,2013-02-12 21:35:00
3:55 PM,42.8,39.2,87,29.89,5.0,East,9.2,-,N/A,,Overcast,80,2013-02-12 21:55:00
4:15 PM,42.8,41.0,93,29.89,3.0,ENE,5.8,-,N/A,,Overcast,60,2013-02-12 22:15:00
4:35 PM,42.8,41.0,93,29.88,3.0,ENE,10.4,-,N/A,,Overcast,70,2013-02-12 22:35:00
4:55 PM,42.8,39.2,87,29.87,3.0,East,10.4,-,0.01,,Overcast,80,2013-02-12 22:55:00
5:15 PM,41.0,39.2,93,29.87,3.0,ENE,5.8,-,N/A,,Overcast,60,2013-02-12 23:15:00
5:35 PM,41.0,39.2,93,29.87,5.0,NE,6.9,-,N/A,,Overcast,50,2013-02-12 23:35:00
5:55 PM,41.0,39.2,93,29.88,4.0,ENE,8.1,-,N/A,,Overcast,70,2013-02-12 23:55:00
6:15 PM,41.0,39.2,93,29.88,4.0,ENE,4.6,-,N/A,,Overcast,60,2013-02-13 00:15:00
6:35 PM,41.0,39.2,93,29.89,4.0,NE,6.9,-,N/A,,Overcast,40,2013-02-13 00:35:00
6:55 PM,41.0,39.2,93,29.91,4.0,NNE,5.8,-,N/A,,Overcast,30,2013-02-13 00:55:00
7:15 PM,41.0,39.2,93,29.91,4.0,NNE,3.5,-,N/A,,Overcast,30,2013-02-13 01:15:00
7:35 PM,41.0,39.2,93,29.92,4.0,NNE,6.9,-,N/A,,Overcast,30,2013-02-13 01:35:00
7:55 PM,41.0,39.2,93,29.92,5.0,North,5.8,-,N/A,,Overcast,360,2013-02-13 01:55:00
8:15 PM,41.0,39.2,93,29.93,7.0,North,6.9,-,0.01,,Overcast,350,2013-02-13 02:15:00
8:35 PM,41.0,39.2,93,29.93,5.0,North,4.6,-,0.01,,Overcast,360,2013-02-13 02:35:00
8:55 PM,41.0,39.2,93,29.93,7.0,North,5.8,-,0.01,,Overcast,360,2013-02-13 02:55:00
9:15 PM,41.0,39.2,93,29.94,10.0,NNW,5.8,-,N/A,,Overcast,340,2013-02-13 03:15:00
9:35 PM,41.0,39.2,93,29.94,10.0,North,5.8,-,N/A,,Overcast,350,2013-02-13 03:35:00
9:55 PM,41.0,37.4,87,29.94,5.0,North,5.8,-,N/A,,Overcast,350,2013-02-13 03:55:00
10:15 PM,41.0,37.4,87,29.94,5.0,NNW,5.8,-,N/A,,Overcast,340,2013-02-13 04:15:00
10:35 PM,41.0,39.2,93,29.94,5.0,NW,5.8,-,N/A,,Overcast,320,2013-02-13 04:35:00
10:55 PM,41.0,39.2,93,29.94,10.0,NW,6.9,-,N/A,,Mostly Cloudy,310,2013-02-13 04:55:00
11:15 PM,41.0,37.4,87,29.94,10.0,NW,8.1,-,N/A,,Overcast,310,2013-02-13 05:15:00
11:35 PM,41.0,39.2,93,29.94,10.0,NW,6.9,-,N/A,,Overcast,320,2013-02-13 05:35:00
11:55 PM,41.0,37.4,87,29.95,10.0,NW,8.1,-,N/A,,Overcast,320,2013-02-13 05:55:00